Location: Zagreb
(45.8000°N, 16.0000°E)
Time: 12:40:48
(UTC+01:00)

Vanguard 1 Rocket - Pass Details

Date: 08 October 2020
Orbit: 656 x 4221 km, 34.3° (Epoch: 28 October)

Event Time Altitude Azimuth Distance (km) Brightness Sun altitude
Rises 16:04:45 0° 224° (SW) 3,751 12.0 21.4°
Reaches altitude 10° 16:07:10 10° 214° (SW) 3,082 11.6 21.1°
Maximum altitude 16:14:04 34° 151° (SSE) 2,519 9.9 20.0°
Drops below altitude 10° 16:26:05 10° 94° (E) 5,418 10.9 18.3°
Sets 16:32:01 0° 88° (E) 7,046 11.4 17.4°
